Decorah, IA

9:02 PM CST on December 14, 2019 (GMT -0600)
Decorah Municipal

Weather History for KDEH - November, 2019

Change the Weather History Date:

Tuesday, November 12, 2019

  Actual Average Record
Temperature  
Mean Temperature 9 °F -  
Max Temperature 15 °F 41 °F 65 °F (1964)
Min Temperature 3 °F 25 °F 8 °F (1966)
Degree Days  
Heating Degree Days 56    
Moisture  
Dew Point 1 °F    
Average Humidity 66    
Maximum Humidity 92    
Minimum Humidity 45    
Precipitation  
Precipitation 0.00 in - - ()
Sea Level Pressure  
Sea Level Pressure 30.39 in    
Wind  
Wind Speed 7 mph ()    
Max Wind Speed 14 mph    
Max Gust Speed 22 mph    
Visibility 10.0 miles    
Events      
Averages and records for this station are not official NWS values.
T = Trace of Precipitation, MM = Missing Value Source: Averaged Metar Reports

Daily Weather History Graph

Daily Weather History Graph

Search for Another Location

Airport or City:

Astronomy

Nov. 12, 2019 Rise Set
Actual Time 6:55 AM CST 4:45 PM CST
Civil Twilight 6:25 AM CST 5:16 PM CST
Nautical Twilight 5:51 AM CST 5:50 PM CST
Astronomical Twilight 5:17 AM CST 6:24 PM CST
Moon 5:13 PM CST (11/12) 6:46 AM CST (11/12)
Length of Visible Light 10h 50m
Length of Day
9h 49m
Full, 100% of the Moon is Illuminated
Nov 12
Full
Nov 19
Last Quarter
Nov 26
New
Dec 4
First Quarter
Dec 11
Full

Hourly Weather History & Observations

Time (CST) Temp. Windchill Dew Point Humidity Pressure Visibility Wind Dir Wind Speed Gust Speed Precip Events Conditions
12:35 AM 6.8 °F -6.9 °F -0.4 °F 72% 30.52 in 10.0 mi NNW 9.2 mph - N/A   Clear
12:55 AM 6.8 °F -7.8 °F -0.4 °F 72% 30.52 in 10.0 mi NNW 10.4 mph - N/A   Clear
1:15 AM 6.8 °F -8.6 °F -0.4 °F 72% 30.53 in 10.0 mi NNW 11.5 mph - N/A   Clear
1:35 AM 6.8 °F -7.8 °F -0.4 °F 72% 30.53 in 10.0 mi NNW 10.4 mph - N/A   Clear
1:55 AM 6.8 °F -5.9 °F -0.4 °F 72% 30.52 in 10.0 mi NW 8.1 mph - N/A   Clear
2:15 AM 6.8 °F -5.9 °F -0.4 °F 72% 30.52 in 10.0 mi NW 8.1 mph - N/A   Clear
2:35 AM 6.8 °F -6.9 °F -0.4 °F 72% 30.52 in 10.0 mi NNW 9.2 mph - N/A   Clear
2:55 AM 6.8 °F -3.5 °F -0.4 °F 72% 30.52 in 10.0 mi NW 5.8 mph - N/A   Clear
3:15 AM 6.8 °F -4.8 °F -0.4 °F 72% 30.52 in 10.0 mi NW 6.9 mph - N/A   Clear
3:35 AM 5.0 °F -6.9 °F -0.4 °F 78% 30.51 in 10.0 mi NW 6.9 mph - N/A   Clear
3:55 AM 5.0 °F -2.1 °F -0.4 °F 78% 30.52 in 10.0 mi Variable 3.5 mph - N/A   Clear
4:15 AM 5.0 °F -4.1 °F -0.4 °F 78% 30.52 in 10.0 mi WNW 4.6 mph - N/A   Clear
4:35 AM 5.0 °F -4.1 °F -0.4 °F 78% 30.52 in 10.0 mi NW 4.6 mph - N/A   Clear
4:55 AM 5.0 °F -5.6 °F -0.4 °F 78% 30.52 in 10.0 mi NW 5.8 mph - N/A   Clear
5:15 AM 5.0 °F -4.1 °F -0.4 °F 78% 30.52 in 10.0 mi WNW 4.6 mph - N/A   Clear
5:35 AM 5.0 °F -4.1 °F -0.4 °F 78% 30.52 in 10.0 mi NW 4.6 mph - N/A   Clear
5:55 AM 3.2 °F -6.2 °F -0.4 °F 85% 30.51 in 10.0 mi NW 4.6 mph - N/A   Clear
6:15 AM 3.2 °F -6.2 °F -0.4 °F 85% 30.51 in 10.0 mi WNW 4.6 mph - N/A   Clear
6:55 AM 3.2 °F - 1.4 °F 92% 30.50 in 10.0 mi Calm Calm - N/A   Clear
7:15 AM 3.2 °F - 1.4 °F 92% 30.51 in 10.0 mi Calm Calm - N/A   Clear
7:35 AM 5.0 °F -4.1 °F 1.4 °F 85% 30.51 in 10.0 mi Variable 4.6 mph - N/A   Clear
7:55 AM 5.0 °F -2.1 °F 1.4 °F 85% 30.50 in 10.0 mi WNW 3.5 mph - N/A   Clear
8:15 AM 5.0 °F -4.1 °F 1.4 °F 85% 30.50 in 10.0 mi Variable 4.6 mph - N/A   Clear
8:35 AM 6.8 °F -2.0 °F 1.4 °F 79% 30.51 in - NW 4.6 mph - N/A   Clear
8:55 AM 6.8 °F -3.5 °F 1.4 °F 79% 30.51 in 10.0 mi Variable 5.8 mph - N/A   Clear
9:15 AM 8.6 °F - 1.4 °F 73% 30.51 in 10.0 mi Calm Calm - N/A   Clear
9:35 AM 8.6 °F 0.1 °F -0.4 °F 67% 30.51 in 10.0 mi Variable 4.6 mph - N/A   Clear
10:15 AM 10.4 °F 2.2 °F -0.4 °F 62% 30.51 in 10.0 mi Variable 4.6 mph - N/A   Clear
10:35 AM 10.4 °F 2.2 °F -0.4 °F 62% 30.51 in 10.0 mi NW 4.6 mph - N/A   Clear
10:55 AM 12.2 °F 1.7 °F -0.4 °F 57% 30.49 in 10.0 mi Variable 6.9 mph - N/A   Clear
11:15 AM 12.2 °F 2.9 °F -2.2 °F 53% 30.48 in 10.0 mi Variable 5.8 mph 11.5 mph N/A   Clear
11:35 AM 14.0 °F 3.9 °F -0.4 °F 53% 30.46 in 10.0 mi WSW 6.9 mph - N/A   Clear
11:55 AM 14.0 °F 6.5 °F -4.0 °F 45% 30.44 in 10.0 mi Variable 4.6 mph - N/A   Clear
12:15 PM 14.0 °F 5.1 °F -0.4 °F 53% 30.42 in 10.0 mi Variable 5.8 mph - N/A   Clear
12:35 PM 15.8 °F 6.1 °F -0.4 °F 49% 30.42 in 10.0 mi Variable 6.9 mph - N/A   Clear
12:55 PM 15.8 °F 7.2 °F -0.4 °F 49% 30.42 in 10.0 mi Variable 5.8 mph - N/A   Clear
1:15 PM 15.8 °F 6.1 °F 1.4 °F 53% 30.41 in 10.0 mi Variable 6.9 mph 13.8 mph N/A   Clear
1:35 PM 15.8 °F 6.1 °F 1.4 °F 53% 30.40 in 10.0 mi South 6.9 mph - N/A   Clear
2:15 PM 15.8 °F 5.1 °F -0.4 °F 49% 30.38 in 10.0 mi SW 8.1 mph - N/A   Clear
2:35 PM 15.8 °F 5.1 °F -0.4 °F 49% 30.37 in 10.0 mi SW 8.1 mph - N/A   Clear
2:55 PM 15.8 °F 7.2 °F -0.4 °F 49% 30.37 in 10.0 mi SW 5.8 mph 15.0 mph N/A   Clear
3:15 PM 14.0 °F 5.1 °F -0.4 °F 53% 30.36 in 10.0 mi Variable 5.8 mph 11.5 mph N/A   Clear
3:35 PM 14.0 °F 2.9 °F -0.4 °F 53% 30.35 in 10.0 mi South 8.1 mph 13.8 mph N/A   Clear
3:55 PM 14.0 °F 2.9 °F -0.4 °F 53% 30.34 in 10.0 mi South 8.1 mph - N/A   Clear
4:15 PM 14.0 °F 2.0 °F 1.4 °F 57% 30.32 in 10.0 mi South 9.2 mph - N/A   Clear
4:35 PM 14.0 °F 1.2 °F 1.4 °F 57% 30.31 in 10.0 mi South 10.4 mph - N/A   Clear
5:15 PM 12.2 °F 0.7 °F 1.4 °F 62% 30.29 in 10.0 mi South 8.1 mph - N/A   Clear
5:35 PM 12.2 °F -1.8 °F 1.4 °F 62% 30.27 in 10.0 mi South 11.5 mph 18.4 mph N/A   Partly Cloudy
5:55 PM 12.2 °F -2.5 °F 1.4 °F 62% 30.26 in 10.0 mi South 12.7 mph - N/A   Clear
6:15 PM 12.2 °F -3.1 °F 1.4 °F 62% 30.25 in 10.0 mi South 13.8 mph - N/A   Clear
6:35 PM 12.2 °F -1.0 °F 1.4 °F 62% 30.25 in 10.0 mi South 10.4 mph 18.4 mph N/A   Clear
6:55 PM 12.2 °F -2.5 °F 1.4 °F 62% 30.24 in 10.0 mi South 12.7 mph 21.9 mph N/A   Clear
7:15 PM 12.2 °F -1.0 °F 1.4 °F 62% 30.24 in 10.0 mi South 10.4 mph 19.6 mph N/A   Clear
7:35 PM 12.2 °F -0.2 °F 1.4 °F 62% 30.24 in 10.0 mi South 9.2 mph 21.9 mph N/A   Partly Cloudy
7:55 PM 12.2 °F -1.0 °F 1.4 °F 62% 30.22 in 10.0 mi South 10.4 mph 18.4 mph N/A   Clear
8:15 PM 12.2 °F -3.1 °F 1.4 °F 62% 30.20 in 10.0 mi South 13.8 mph 20.7 mph N/A   Partly Cloudy
8:35 PM 12.2 °F -0.2 °F 1.4 °F 62% 30.20 in 10.0 mi South 9.2 mph 16.1 mph N/A   Scattered Clouds
8:55 PM 12.2 °F -0.2 °F 3.2 °F 67% 30.21 in 10.0 mi South 9.2 mph 15.0 mph N/A   Partly Cloudy
9:15 PM 12.2 °F -0.2 °F 3.2 °F 67% 30.20 in 10.0 mi South 9.2 mph 16.1 mph N/A   Clear
9:55 PM 14.0 °F 2.9 °F 3.2 °F 62% 30.20 in 10.0 mi South 8.1 mph 15.0 mph N/A   Scattered Clouds
10:15 PM 14.0 °F 2.0 °F 3.2 °F 62% 30.19 in 10.0 mi South 9.2 mph 17.3 mph N/A   Clear
10:35 PM 14.0 °F 1.2 °F 3.2 °F 62% 30.17 in - South 10.4 mph 18.4 mph N/A   Partly Cloudy
10:55 PM 14.0 °F -0.2 °F 5.0 °F 67% 30.16 in 10.0 mi South 12.7 mph - N/A   Scattered Clouds
11:15 PM 14.0 °F 1.2 °F 5.0 °F 67% 30.16 in 10.0 mi South 10.4 mph 21.9 mph N/A   Mostly Cloudy
11:35 PM 14.0 °F 0.5 °F 5.0 °F 67% 30.16 in 10.0 mi South 11.5 mph 18.4 mph N/A   Overcast
11:55 PM 14.0 °F 0.5 °F 5.0 °F 67% 30.14 in 10.0 mi South 11.5 mph 21.9 mph N/A   Mostly Cloudy